This demonstration page uses our WeatherBlox Daily Observations layout. Learn more.

Left ArrowRight Arrow

44.8408, -93.29828

Hourly Observations for September 8, 2016

Temp ( °F °C ) Dew Point ( °F °C ) Humidity (%) Winds ( mph kmh ) Pressure ( in mb ) Visibility ( mi km ) Precip ( " mm )
12:53 am 00:53 Mostly Cloudy 71 21.7 67 19.4 87 87 S 8 13 29.80 1009 10 16 0.00 0.00
1:53 am 01:53 Mostly Cloudy 72 22.2 67 19.4 84 84 SSW 7 11 29.79 1009 10 16 0.00 0.00
2:53 am 02:53 Mostly Cloudy 71 21.7 66 18.9 84 84 WSW 12 19 29.79 1009 10 16 0.00 0.00
3:53 am 03:53 Mostly Cloudy 70 21.1 66 18.9 87 87 WNW 9 15 29.78 1008 10 16 0.00 0.00
3:58 am 03:58 Mostly Cloudy 70 21.1 66 18.9 87 87 WNW 8 13 29.77 1008 10 16 0.00 0.00
4:15 am 04:15 Partly Cloudy 70 21.1 65 18.3 84 84 WNW 8 13 29.77 1008 10 16 0.00 0.00
4:53 am 04:53 Mostly Clear 68 20 62 16.7 81 81 WNW 14 22 29.81 1009 10 16 0.00 0.00
5:53 am 05:53 Mostly Clear 64 17.8 58 14.4 81 81 WNW 13 20 29.84 1010 10 16 0.00 0.00
6:53 am 06:53 Mostly Sunny 62 16.7 57 13.9 84 84 WNW 9 15 29.87 1012 10 16 0.00 0.00
7:53 am 07:53 Mostly Sunny 63 17.2 56 13.3 78 78 NW 14 22 29.90 1013 10 16 0.00 0.00
8:53 am 08:53 Mostly Sunny 64 17.8 56 13.3 75 75 WNW 12 19 29.91 1013 10 16 0.00 0.00
9:53 am 09:53 Mostly Sunny 66 18.9 56 13.3 70 70 WNW 10 17 29.91 1013 10 16 0.00 0.00
10:53 am 10:53 Mostly Sunny 70 21.1 57 13.9 64 64 NW 9 15 29.91 1013 10 16 0.00 0.00
11:53 am 11:53 Sunny 72 22.2 56 13.3 57 57 VRB 5 7 29.91 1013 10 16 0.00 0.00
12:53 pm 12:53 Sunny 75 23.9 55 12.8 50 50 NW 9 15 29.90 1013 10 16 0.00 0.00
1:53 pm 13:53 Mostly Sunny 76 24.4 56 13.3 50 50 NW 8 13 29.89 1012 10 16 0.00 0.00
2:53 pm 14:53 Mostly Sunny 77 25 53 11.7 43 43 NW 12 19 29.88 1012 10 16 0.00 0.00
3:53 pm 15:53 Mostly Sunny 77 25 53 11.7 43 43 W 8 13 29.88 1012 10 16 0.00 0.00
4:53 pm 16:53 Mostly Sunny 77 25 50 10 39 39 W 9 15 29.88 1012 10 16 0.00 0.00
5:53 pm 17:53 Partly Cloudy 76 24.4 52 11.1 43 43 W 7 11 29.89 1012 10 16 0.00 0.00
6:53 pm 18:53 Mostly Cloudy 74 23.3 52 11.1 46 46 NW 6 9 29.89 1012 10 16 0.00 0.00
7:53 pm 19:53 Mostly Cloudy with Light Rain 72 22.2 53 11.7 52 52 NNE 5 7 29.88 1012 9 14 0.00 0.03
8:53 pm 20:53 Mostly Cloudy 71 21.7 57 13.9 61 61 Calm 29.90 1013 10 16 0.00 0.03
9:53 pm 21:53 Mostly Cloudy 69 20.6 58 14.4 68 68 SSE 6 9 29.88 1012 10 16 0.00 0.00
10:53 pm 22:53 Mostly Cloudy 70 21.1 57 13.9 64 64 S 3 6 29.89 1012 10 16 0.00 0.00
11:53 pm 23:53 Partly Cloudy 68 20 57 13.9 68 68 Calm 29.88 1012 10 16 0.00 0.00

Powered by AerisWeather